Regional Weather Roundup
Issued by NWS Burlington, VT

Home | Current Version | Previous Version | Text Only | Print | Product List | Glossary On
Versions: 1 2 3 4 5 6 7 8 9 10 11 12 13 14 15 16 17 18 19 20 21 22 23 24 25 26 27 28 29 30 31 32 33 34 35 36 37 38 39 40 41 42 43 44 45 46 47 48 49 50
108
ASUS41 KBTV 291610
RWRBTV
VERMONT REGIONAL WEATHER ROUNDUP
NATIONAL WEATHER SERVICE BURLINGTON VT
1200 PM EDT FRI JUL 29 2016

NOTE: "FAIR" INDICATES FEW OR NO CLOUDS BELOW 12,000 FEET WITH NO
SIGNIFICANT WEATHER AND/OR OBSTRUCTIONS TO VISIBILITY.

* THESE REPORTS ARE NOT UNDER NWS QUALITY CONTROL AND/OR DO NOT
  REPORT WEATHER SUCH AS PRECIPITATION AND FOG.

VTZ001>019-291700-
_____VERMONT_____


CITY           SKY/WX    TMP DP  RH WIND       PRES   REMARKS
BURLINGTON     PTSUNNY   78  64  61 N8        29.93S
MONTPELIER     CLOUDY    75  65  70 NW3       29.98F
MORRISVILLE    FAIR      77  57  50 NE6       29.95S
ST. JOHNSBURY*   N/A     78  61  55 MISG      29.91F
LYNDONVILLE*   PTSUNNY   76  61  59 NW8       29.97R
MIDDLEBURY*    FAIR      80  68  67 N5        29.92S
RUTLAND*       PTSUNNY   77  67  71 VRB6      29.92F
SPRINGFIELD    FAIR      80  63  55 VRB7      29.91F
HIGHGATE*      FAIR      75  63  64 N8        29.94F
NEWPORT*       FAIR      77  57  50 N8        29.95S
BENNINGTON     FAIR      79  67  66 VRB6      29.91

_____LAKE CHAMPLAIN_____


CITY           SKY/WX    TMP DP  RH WIND       PRES   REMARKS
BURTON ISLAND*   N/A     75  64  69 NW1         N/A
COLCHESTER RF*   N/A     72  64  78 N12         N/A
DIAMOND ISL*     N/A     72  64  78 N14         N/A

$$

NYZ007-026>031-035-052-083-087-291700-
_____NORTHERN NEW YORK_____


CITY           SKY/WX    TMP DP  RH WIND       PRES   REMARKS
PLATTSBURGH    MOSUNNY   75  65  70 NE9       29.93S
SARANAC LAKE   MOSUNNY   75  51  43 CALM      29.98R
MASSENA        MOSUNNY   76  58  53 N7        29.98R
OGDENSBURG*    SUNNY     77  57  50 N9        29.97S
POTSDAM*       SUNNY     75  64  69 N8        29.97S
WATERTOWN      SUNNY     84  55  36 N10G16    29.94F
FT DRUM        MOSUNNY   78  61  54 NE10      29.96S
ALBANY         PTSUNNY   79  68  69 N8        29.90S
GLENS FALLS    MOSUNNY   81  62  52 N14       29.90S

$$
NHZ002-005-011-291700-
_____NEW HAMPSHIRE_____


CITY           SKY/WX    TMP DP  RH WIND       PRES   REMARKS
LEBANON        SUNNY     79  67  66 NE9       29.91F
KEENE          CLOUDY    78  68  71 N8        29.89F
MT WASHINGTON  FOG       54  52  94 N7          N/A  VSB 1
PLYMOUTH       CLOUDY    75  64  69 CALM      29.92S
WHITEFIELD     CLOUDY    76  64  66 CALM      29.94F

$$

_____REGIONAL QUEBEC LOCATIONS_____


CITY           SKY/WX    TMP DP  RH WIND       PRES   REMARKS
MONTREAL       PTSUNNY   75  55  50 VRB13     29.95S
QUEBEC CITY    PTSUNNY   73  57  56 VRB2      29.92F
SHERBROOKE     SUNNY     79  54  41 N7        29.93S

_____REGIONAL ONTARIO LOCATIONS_____


CITY           SKY/WX    TMP DP  RH WIND       PRES   REMARKS
OTTAWA         MOSUNNY   73  55  53 N6        29.99S

______KEY______
VSB  - VISIBILITY IN MILES
WCI  - WIND CHILL INDEX
HX   - HEAT INDEX
$$
NNNN




USA.gov is the U.S. government's official web portal to all federal, state and local government web resources and services.